www.pogodaiklimat.ru
ПОГОДА в Сан-Рамон-де-ла-Нуэва-Оране
Время
(UTC), дата
00 7.11
03 7.11
06 7.11
09 7.11
12 7.11
15 7.11
18 7.11
21 7.11
00 8.11
03 8.11
06 8.11
09 8.11
12 8.11
15 8.11
18 8.11
21 8.11
00 9.11
03 9.11
06 9.11
09 9.11
12 9.11
15 9.11
18 9.11
21 9.11
00 10.11
03 10.11
06 10.11
09 10.11
12 10.11
15 10.11
18 10.11
21 10.11
00 11.11
03 11.11
06 11.11
09 11.11
12 11.11
15 11.11
18 11.11
21 11.11
00 12.11
03 12.11
06 12.11
09 12.11
12 12.11
15 12.11
18 12.11
21 12.11
00 13.11
03 13.11
06 13.11
09 13.11
12 13.11
15 13.11
18 13.11
Ветер
(напр.,м/с)
Видим. Явления Облачность Т
(С)
Тd
(С)
f
(%)
Тe
(С)
Тes
(С)
Комфортность P
(гПа)
Po
(гПа)
Тmin
(С)
Tmax
(С)
R
(мм)
R24
(мм)
S
(см)
штиль 0 12 км 10/8 750 м
[Sc Ac As]
+27.4 +20.8 67 +34 +34 очень
душно
1007.1 966.9 +20.6 +31.5
штиль 0 10 км в посл. час дождь 10/10 600 м
[Sc]
+25.1 +22.3 84 +33 +33 очень
душно
1010.9 970.6
Ю 1 10 км {дождь} 10/10 600 м
[Sc]
+24.2 +21.4 84 +31 +31 очень
душно
1010.0 970.0 0.3
штиль 0 10 км 10/10 600 м
[Sc]
+23.0 +21.2 90 +31 +31 очень
душно
1010.3 970.2
ЮЗ 1 6000 м в посл. час дождь 10/10 210 м
[Frnb Ns]
+22.7 +21.2 91 +30 +30 очень
душно
1012.6 972.2 +21.7 +27.4 0.3
З 3 10 км 10/10 300 м
[Cu Sc]
+25.5 +20.7 75 +32 +32 очень
душно
1011.8 971.4
СЗ 3 10 км 8/8 450 м
[Cu Sc]
+30.0 +19.8 54 +36 +39 очень
душно
1008.6 968.6
З 3 10 км 8/8 600 м
[Cb calv]
+27.8 +20.5 65 +35 +35 очень
душно
1006.9 966.8
С 3 10 км 9/9 450 м
[Cu Sc]
+26.0 +21.4 76 +33 +33 очень
душно
1007.6 967.4 +22.7 +30.9
С 3 10 км 10/10 600 м
[Sc]
+24.9 +21.5 81 +32 +32 очень
душно
1008.6 968.5
С 4 10 км 10/10 600 м
[Sc]
+24.3 +21.5 84 +31 +31 очень
душно
1006.2 966.4
СЗ 1 10 км в посл. час дождь 9/9 450 м
[Sc]
+23.3 +22.0 92 +32 +32 очень
душно
1005.9 965.8
СЗ 3 12 км {дождь} 9/6 750 м
[Sc Ac As]
+24.6 +21.3 82 +31 +32 очень
душно
1008.1 968.0 +23.0 +26.0 0.2
С 4 12 км 3/3 600 м
[Cu hum]
+32.0 +21.1 53 +40 +49 очень
душно
1005.7 966.1
З 3 12 км 4/4 600 м
[Cu hum]
+35.8 +20.2 40 +42 +52 опасность
перегрева
1001.3 962.1
штиль 0 12 км 8/8 600 м
[Cb calv]
+35.4 +21.8 45 +43 +44 опасность
перегрева
998.8 959.6
З 3 12 км зарница 10/10 600 м
[Cb cap]
+31.2 +22.5 60 +41 +41 опасность
перегрева
1001.0 961.6 +24.6 +37.4
З 3 12 км в посл. час гроза 9/9 600 м
[Cb cap]
+28.0 +21.5 68 +36 +36 очень
душно
1002.1 962.8
Ю 1 12 км {гроза} 10/10 600 м
[Sc]
+26.2 +21.4 75 +33 +33 очень
душно
1002.1 963.0
штиль 0 12 км 10/8 750 м
[Sc Cs]
+25.4 +21.2 78 +32 +32 очень
душно
1003.3 964.0
З 3 10 км 8/4 600 м
[Sc Ac und]
+27.1 +21.5 71 +34 +36 очень
душно
1006.1 966.6 +24.6 +31.2
штиль 0 10 км 6/1 600 м
[Cu hum Ac und]
+34.0 +22.2 50 +43 +58 опасность
перегрева
1004.5 965.3
СЗ 7 10 км 6/4 750 м
[Cb calv Cs]
+38.5 +21.2 37 +45 +49 опасность
перегрева
999.9 960.6
ЮВ 15 4000 м пыльный позёмок 8/8 750 м
[Cb cap]
+28.3 +19.5 59 +34 +34 очень
душно
1001.6 961.8
Ю 7 2000 м гроза, ливневой дождь 10/8 240 м
[Cb cap As op]
+19.3 +19.1 99 +21 +21 комфорт 1011.7 971.2 +19.3 +39.8 45
Ю 4 2000 м гроза, ливневой дождь 10/6 240 м
[Cb cap As op]
+19.8 +19.5 98 +23 +23 комфорт 1014.2 974.1
Ю 4 2000 м слаб. дождь {гроза} 10/6 240 м
[Frnb As op]
+19.6 +19.3 98 +22 +22 комфорт 1013.0 973.2 11
Ю 3 8000 м в посл. час дождь 10/8 240 м
[Frnb Ac As]
+19.3 +18.7 96 +22 +22 комфорт 1012.7 972.2
СЗ 4 10 км {дождь} 9/4 450 м
[Sc Ac und Cs]
+21.3 +19.3 88 +26 +27 душно 1016.2 975.0 +19.3 +21.3 2
Ю 3 10 км 9/4 450 м
[Cu Sc Ac As Cs]
+24.7 +19.6 73 +30 +36 очень
душно
1016.4 975.4
ЮВ 3 10 км 5/3 600 м
[Cu hum Ci]
+29.5 +17.9 50 +34 +45 очень
душно
1012.8 972.4
ЮВ 1 10 км 8/3 600 м
[Sc Cs]
+29.6 +18.2 50 +34 +37 очень
душно
1011.0 970.6
С 4 10 км 10/6 600 м
[Sc Ac As]
+25.0 +20.5 76 +31 +31 очень
душно
1011.5 971.0 +21.3 +30.5
С 4 10 км 10/8 600 м
[Sc Ac As]
+23.2 +19.8 81 +30 +30 очень
душно
1013.0 972.5
С 3 10 км 3/3 600 м
[Sc]
+21.6 +19.4 87 +27 +27 душно 1011.3 971.0
С 3 10 км 3/3 600 м
[Sc]
+19.9 +19.0 95 +23 +23 комфорт 1011.9 971.6
СЗ 3 10 км 8/8 600 м
[Sc]
+23.5 +19.3 77 +28 +29 душно 1013.3 972.8 +19.4 +25.0
С 1 10 км 4/4 600 м
[Cu hum Cs]
+29.4 +19.8 56 +35 +49 очень
душно
1011.6 971.4
ЮВ 3 10 км 6/6 600 м
[Cu hum]
+31.8 +18.8 46 +37 +44 очень
душно
1008.1 968.2
З 3 10 км 6/4 600 м
[Cu hum Cs]
+32.3 +18.3 43 +37 +39 очень
душно
1005.7 965.8
З 3 10 км 8/1 600 м
[Cu hum Cs]
+27.1 +20.0 65 +33 +33 очень
душно
1007.6 967.4 +23.5 +33.7
З 1 10 км 5/1 600 м
[Cu hum Cs]
+24.8 +21.1 80 +31 +31 очень
душно
1007.9 968.0
З 1 10 км 1/0
[Cs]
+22.9 +20.0 84 +30 +30 очень
душно
1006.7 966.9
С 3 10 км 1/0
[Cs]
+21.2 +19.3 89 +26 +26 душно 1005.9 966.1
СЗ 4 10 км 4/0
[Cc]
+24.8 +19.4 72 +30 +33 душно 1007.0 967.0 +20.4 +27.1
С 3 10 км 6/3 600 м
[Cu med, cong Ac und]
+32.5 +18.9 45 +38 +47 очень
душно
1005.1 965.4
СЗ 3 10 км 5/4 600 м
[Cb calv Ci ing]
+35.5 +18.7 37 +40 +50 очень
душно
1002.0 962.6
С 7 10 км 8/3 600 м
[Cb calv Ac cuf Cs]
+32.5 +18.7 44 +37 +38 очень
душно
1000.7 961.0
З 4 10 км зарница 9/6 600 м
[Cb cap Ac cuf]
+29.8 +17.9 49 +34 +34 очень
душно
1002.6 963.0 +24.8 +36.2
С 3 10 км 8/4 600 м
[Sc Cs]
+26.4 +19.7 67 +32 +32 очень
душно
1003.8 964.4
З 4 10 км 6/4 600 м
[Sc Cs]
+25.0 +19.5 72 +30 +30 душно 1002.9 963.6
З 3 10 км 4/0
[Cs]
+24.4 +19.5 74 +30 +30 очень
душно
1002.7 963.2
С 3 15 км 1/0
[Cs]
+27.2 +19.6 63 +33 +38 очень
душно
1005.5 965.8 +23.2 +29.8
ЮВ 3 15 км 1/1 750 м
[Cu med, cong]
+33.6 +21.0 48 +41 +57 опасность
перегрева
1004.7 965.3
Ю 9 12 км 6/4 750 м
[Cb calv Ac cuf]
+31.4 +22.1 58 +40 +41 очень
душно
1003.6 964.0
Местоположение метеостанции Сан-Рамон-де-ла-Нуэва-Оран (Аргентина): широта -23.15 долгота -64.31 высота над уровнем моря 357 м.
В архиве по умолчанию представлена погода в Сан-Рамон-де-ла-Нуэва-Оране за последнюю неделю. Архивные данные за месяц целиком и за предыдущие месяцы, начиная с января 2011 года, Вы можете получить, выбрав интересующий диапазон дат из раскрывающегося списка и нажав кнопку "Найти!".
*Определитесь, кто Вы:
Внимание! Время в таблицах - всемирное. Для получения местного времени необходимо прибавить поправку, которая равна -3 ч.
Смотрите также архив погоды в соседних городах и на ближайших метеорологических станциях:
Партнеры нашего сайта:      
Пояснения к столбцам:
  • Ветер - указаны скорость ветра в м/с - средняя за 10 мин, порывы в срок и между сроками (в фигурных скобках) и направление, откуда дует ветер: С - северный,
  • СВ - северо-восточный, В - восточный, ЮВ - юго-восточный, Ю - южный, ЮЗ - юго-западный, З - западный, СЗ - северо-западный.
  • Видимость - горизонтальная дальность видимости в метрах или километрах. При видимости от 1 до 10 км при отсутствии осадков обычно наблюдается дымка, при ухудшении видимости до 1 км и менее - туман. В сухую погоду видимость может ухудшаться дымом, пылью или мглою.
  • Явления - указаны атмосферные явления, наблюдавшиеся в срок или в последний час перед сроком; фигурными скобками обозначены явления, наблюдавшиеся между сроками (за 1-3 часа до срока); квадратными скобками обозначены град или гололедные отложения с указанием их диаметра в мм.
  • Облачность - указаны через наклонную черту общая и нижняя облачность в баллах и высота нижней границы облаков в метрах; квадратными скобками обозначены формы облаков: Ci - перистые, Cs - перисто-слоистые, Cc - перисто-кучевые, Ac - высококучевые, As - высокослоистые, Sc - слоисто-кучевые, Ns - слоисто-дождевые, Cu - кучевые, Cb - кучево-дождевые. Подробнее классификацию облаков см. в Атласе облаков (PDF).
  • T - Температура воздуха - температура, измеренная на высоте 2 м над землей.
  • Td - Температура точки росы - температура, при понижении до которой содержащийся в воздухе водяной пар достигнет насыщения.
  • f - Относительная влажность воздуха - влажноcть воздуха, измеренная на высоте 2 м над землей.
  • Te - Эффективная температура - температура, которую ощущает одетый по сезону человек в тени. Характеристика душности погоды. При расчете учитывается влияние влажности воздуха и скорости ветра на теплоощущения человека.
  • Tes - Эффективная температура на солнце - температура, которую ощущает человек, с поправкой на солнечный нагрев. Характеристика знойности погоды. Зависит от высоты солнца над горизонтом, облачности и скорости ветра. Ночью, в пасмурную погоду, а также при ветре 12 м/с и более поправка равна нулю.
  • P - Атмосферное давление - приведенное к уровню моря атмосферное давление.
  • Po - Атмосферное давление - измеренное на уровне метеостанции атмосферное давление.
  • Tmin - Минимальная температура - минимум температуры воздуха на высоте 2 м над землей.
  • Tmax - Максимальная температура - максимум температуры воздуха на высоте 2 м над землей.
  • R - Количество осадков - Количество выпавших осадков за период времени, мм. При наведении курсора мыши на число - период времени, за который выпало указанное количество осадков.
  • R24 - Количество осадков - Количество выпавших осадков за 24 часа, мм.
  • S - Снежный покров - Высота снежного покрова, см. При наведении курсора мыши на число - состояние снежного покрова и степень покрытия местности в баллах.